877  
ASUS42 KCAE 291010  
RWRCAE  
REGIONAL WEATHER ROUNDUP  
NATIONAL WEATHER SERVICE COLUMBIA SC  
600 AM EDT WED MAR 29 2017  
 
NOTE: "FAIR" INDICATES FEW OR NO CLOUDS BELOW 12,000 FEET WITH NO  
SIGNIFICANT WEATHER AND/OR S TO VISIBILITY
.  
 
NOT ALL STATIONS ARE QUALITY CONTROLLED BY THE NATIONAL  
WEATHER SERVICE. USE DATA WITH CAUTION...ESPECIALLY  
DEWPOINT OBSERVATIONS.  
 
SCZ001>056-GAZ040-063>065-077-291100-   
..UPSTATE SOUTH CAROLINA
 
 
 
CITY SKY/WX TMP DP RH WIND PRES REMARKS
 
ANDERSON CLEAR 52 49 89 CALM 30.01R  
LIBERTY SUNNY 49 48 97 CALM 30.01R  
SPARTANBURG CLEAR 52 48 87 CALM 30.01R  
CLEMSON CLEAR 56 51 84 NW3 30.03R  
GREENVILLE CLEAR 58 50 75 CALM 30.02R  
GREENWOOD CLEAR 52 49 89 CALM 30.01R  
GREER CLEAR 55 49 80 NE3 30.00S  
ROCK HILL CLEAR 52 49 89 CALM 30.01R  
CHESTER SUNNY 57 48 72 N6 30.01S  
LAURENS SUNNY 52 50 93 N5 30.00S  
 
   
..CENTRAL SOUTH CAROLINA
 
 
 
CITY SKY/WX TMP DP RH WIND PRES REMARKS
 
COLUMBIA APT CLEAR 54 51 90 CALM 29.99R  
COLUMBIA OWENS CLEAR 56 53 90 CALM 30.00R  
MCENTIRE ANGB CLEAR 58 49 73 CALM 29.99R  
ORANGEBURG CLEAR 58 54 86 N3 29.98R  
SUMTER SHAW CLEAR 59 49 70 N5 29.96R  
NEWBERRY SUNNY 54 50 87 NE6 30.03R  
AIKEN FAIR 52 48 87 CALM 30.02S  
BARNWELL FAIR 61 55 82 CALM 29.98R  
MANNING FAIR 59 52 77 NE5 29.97R  
CAMDEN FAIR 59 50 72 CALM 29.99R  
LANCASTER SUNNY 54 54 100 N3 30.01R  
WINNSBORO SUNNY 61 50 67 NE7 29.99R  
 
   
..EASTERN AND COASTAL SOUTH CAROLINA
 
 
 
CITY SKY/WX TMP DP RH WIND PRES REMARKS
 
MYRTLE BEACH CLEAR 62 53 72 N9 29.96R  
N MYRTLE BCH CLEAR 62 54 74 N8 29.95R  
CONWAY FAIR 52 52 100 CALM 29.96R  
MARION FAIR 54 54 100 CALM 29.97R  
HARTSVILLE FAIR 59 48 67 N6 29.98R  
FLORENCE CLEAR 59 52 77 N5 29.98R  
DARLINGTON CLEAR 59 51 75 N5 29.99R  
CHARLESTON APT CLEAR 58 56 93 N6 29.95R  
MOUNT PLEASANT FAIR 61 61 100 CALM 29.95R FOG  
WALTERBORO SUNNY 61 57 88 N5 29.97R  
BEAUFORT CLEAR 62 61 96 CALM 29.96R  
 
   
..EASTERN GEORGIA
 
 
 
CITY SKY/WX TMP DP RH WIND PRES REMARKS
 
AUGUSTA BUSH F CLEAR 57 55 93 N5 29.98R  
AUGUSTA DANIEL CLEAR 64 52 64 NE7 29.99R  
THOMSON CLEAR 52 50 93 CALM 30.04S  
WASHINGTON FAIR 61 55 82 E5 30.00R  
CLAXTON FAIR N/A N/A N/A CALM 29.97R  
SYLVANIA MOSUNNY N/A N/A N/A CALM 29.99R FOG  
STATESBORO CLEAR 60 60 100 CALM 29.97S  
SAVANNAH CLEAR 62 58 86 W5 29.96R  
 
   
..SOUTHERN NORTH CAROLINA
 
 
 
CITY SKY/WX TMP DP RH WIND PRES REMARKS
 
CHARLOTTE CLEAR 57 48 72 N3 30.02R  
MONROE CLEAR 58 48 69 N6 30.00R  
WADESBORO SUNNY 50 48 92 CALM 30.00R  
ROCKINGHAM SUNNY 57 51 81 N3 29.99R  
RUTHERFORDTON CLEAR 58 48 71 N5 30.03R  
ASHEVILLE CLEAR 47 44 90 CALM 30.06R  
 

 
 
 
CLICK HERE TO GO TO PREVIOUS BULLETINS.

The Nexlab SC Page
The Nexlab GA Page Main Text Page